Wind_Speed
56 51 46 46 47 49 52 53 53 53 49 44 36 31 31 26 27 29 29 32 33 35 36 41 37 36 44 37 35 31 30 27 23 23 19 15 15 20 21 24 27 24 30
56 52 47 46 46 48 51 56 56 53 50 44 40 29 24 40 47 42 42 28 34 38 36 41 41 43 46 42 41 36 35 31 27 24 20 17 18 21 22 22 25 26 29
54 48 40 40 40 46 49 54 57 55 54 52 41 50 63 61 69 59 39 43 36 40 42 41 43 49 49 45 44 43 39 36 34 33 29 25 24 23 26 24 23 27 27
46 43 39 38 37 43 46 54 59 59 64 69 50 74 79 71 77 72 67 46 46 41 46 43 45 52 54 52 48 46 43 41 37 35 33 32 30 30 26 27 27 24 27
40 37 35 34 34 40 45 51 58 62 75 85 67 68 93 59 67 63 58 49 25 48 48 53 52 54 56 56 51 49 43 44 43 43 40 38 35 37 35 31 28 28 27
35 31 28 28 32 40 40 41 50 59 71 86 82 87 89 75 75 48 49 44 46 52 70 60 61 58 57 56 56 50 48 49 49 49 47 39 34 38 29 31 27 29 29
31 32 29 25 34 33 37 38 43 54 65 78 87 87 83 79 73 56 54 56 58 47 58 70 66 64 60 53 58 55 54 51 50 50 49 43 38 39 25 27 29 31 31
29 29 22 23 32 35 38 33 36 47 61 76 91 91 90 79 66 66 56 60 67 61 62 64 64 65 62 59 56 56 56 57 54 55 55 53 47 44 37 32 33 29 29
23 17 21 25 27 28 32 35 33 45 56 69 85 96 97 91 72 73 75 67 70 71 67 68 59 62 63 62 58 56 56 57 49 53 53 51 46 44 41 37 35 34 32
20 25 23 25 28 26 28 24 19 26 47 59 76 94 96 98 97 82 81 69 76 69 62 61 63 60 61 58 57 52 60 57 58 54 51 52 50 48 46 43 40 36 38
27 28 24 18 18 17 20 8 9 9 17 45 68 80 94 96 96 92 86 81 72 65 64 66 67 64 67 64 64 62 61 63 63 55 52 52 53 54 52 46 47 42 38
33 27 20 11 12 18 25 12 14 16 19 32 53 73 82 85 86 89 80 83 85 78 72 64 67 67 68 71 72 70 66 63 63 62 59 57 59 57 57 54 54 52 50
35 33 33 29 31 29 27 21 24 18 17 24 38 53 63 76 71 67 71 68 68 76 80 82 74 73 71 75 76 75 70 63 60 61 59 61 60 59 58 58 54 55 58
37 40 38 38 42 37 35 31 32 28 24 25 35 43 51 61 67 68 66 64 68 65 66 78 76 71 72 76 77 74 69 70 63 63 61 59 59 58 58 61 61 62 64
41 47 42 43 45 43 41 37 33 34 35 34 32 41 48 54 60 64 66 66 64 63 64 65 65 65 67 69 72 74 71 69 66 69 67 69 71 72 71 70 73 69 69
49 50 49 50 45 51 44 44 44 40 40 42 38 38 45 53 59 61 62 61 60 60 63 66 65 64 65 67 67 73 71 67 70 74 74 73 72 75 74 75 76 76 77
49 57 56 55 55 49 52 48 52 48 47 45 42 43 45 53 56 59 61 62 64 65 65 66 66 67 66 68 71 74 75 75 79 81 78 78 78 79 80 80 81 81 82
48 53 58 61 60 58 56 57 54 57 54 52 52 53 54 58 61 61 64 67 66 69 73 72 73 75 76 77 81 83 85 85 88 88 86 90 89 85 84 84 82 81 83
41 51 56 57 64 64 65 63 62 59 60 62 60 58 61 62 64 64 64 67 68 70 71 73 75 76 78 83 85 87 89 89 89 88 89 88 88 90 90 89 89 88 90
41 43 54 63 63 61 69 67 65 64 64 64 61 67 67 69 69 66 69 73 68 68 71 71 73 77 78 79 81 86 90 90 92 91 92 92 93 94 96 97 96 97 101
48 51 52 49 53 56 67 71 69 71 71 75 73 65 66 67 71 73 72 74 74 73 74 78 80 82 86 86 89 86 86 87 90 93 96 97 100 101 103 103 103 99 100
50 52 52 53 50 51 55 64 70 73 72 74 74 72 71 72 73 78 77 75 77 77 78 80 81 83 82 86 91 94 93 92 94 95 97 99 98 100 100 102 101 98 99
59 55 51 50 52 52 51 50 54 58 63 66 69 75 77 77 79 79 76 79 81 82 84 88 91 92 89 89 92 93 96 99 102 100 99 102 105 106 106 108 108 109 111
59 60 67 65 61 60 60 59 59 59 61 66 69 72 73 75 80 82 84 87 88 90 92 96 96 96 97 98 101 103 105 106 109 109 109 110 112 113 114 116 115 117 115
48 50 50 58 67 67 70 67 68 71 70 70 73 77 81 82 82 87 91 91 94 98 100 102 104 106 106 107 111 113 116 117 117 120 124 124 121 119 119 120 119 119 122
46 47 48 50 53 58 68 75 77 76 76 80 80 82 84 86 86 90 94 96 100 103 106 110 113 116 118 114 117 120 122 123 123 122 124 128 126 130 132 130 132 127 124
Wind_Direction
286 283 273 260 250 241 233 230 225 220 216 209 204 214 229 239 244 248 253 252 248 243 228 221 219 218 207 215 221 222 224 227 236 243 255 271 293 302 315 314 311 309 323
286 282 273 259 248 239 232 228 223 215 208 196 192 199 247 256 250 266 248 249 251 246 239 226 224 214 213 216 217 224 231 234 240 240 250 268 297 304 319 314 305 314 325
284 278 264 253 241 237 231 226 223 211 198 186 201 236 218 229 241 245 241 260 256 242 247 239 227 216 217 218 221 228 233 240 249 247 251 263 280 293 304 323 309 310 334
283 274 263 243 239 230 225 221 219 209 193 185 192 223 222 242 225 230 243 241 247 240 240 241 230 221 220 225 231 237 243 247 253 259 262 259 267 285 289 316 317 323 334
272 266 255 244 235 226 219 218 217 213 200 198 212 212 220 216 218 215 226 231 229 256 249 241 235 227 227 231 235 238 245 250 254 259 264 263 270 274 287 299 311 312 324
263 252 241 235 227 225 220 221 220 219 211 208 209 209 213 210 207 215 218 213 220 231 249 241 238 234 234 236 237 237 243 251 254 260 262 262 264 269 283 296 309 307 315
252 248 248 238 218 219 218 216 220 223 221 213 208 207 205 203 208 212 205 206 208 214 213 234 235 234 236 238 241 242 248 251 254 259 260 263 261 266 273 285 299 304 309
253 258 255 227 216 209 208 212 220 222 221 218 212 206 203 204 203 204 200 209 217 222 230 231 232 234 237 237 242 242 244 250 255 256 257 258 258 263 263 272 295 297 297
245 232 214 196 201 211 210 206 209 222 221 221 215 212 207 204 204 208 206 210 217 222 231 225 230 233 238 239 241 244 248 248 253 256 253 255 252 257 259 266 278 283 287
213 182 175 189 197 208 224 215 239 232 222 224 216 213 213 209 210 212 220 223 231 233 230 228 232 235 237 240 240 237 239 240 243 250 254 253 253 255 258 265 273 272 283
167 176 178 188 206 211 218 216 267 235 234 223 218 214 216 215 216 216 219 226 232 234 231 236 236 236 238 239 239 236 236 241 242 250 253 252 254 260 262 264 275 271 271
176 175 158 166 207 181 192 184 231 213 241 227 220 214 215 217 220 220 224 230 234 235 235 236 233 240 242 240 239 241 243 247 247 243 247 252 257 259 258 264 268 271 271
187 182 163 167 177 206 189 194 218 244 227 219 210 214 216 216 215 226 228 234 238 239 239 238 242 243 242 240 241 241 244 241 241 243 249 252 255 258 261 263 265 266 269
198 196 195 197 206 205 199 212 217 233 237 233 217 215 213 212 217 223 228 234 235 235 236 237 241 241 240 241 242 245 247 245 249 251 254 253 254 258 258 263 265 267 267
204 204 205 205 203 210 209 212 218 215 218 221 221 220 217 215 217 223 228 231 232 232 231 234 238 242 247 248 244 246 249 255 258 258 257 259 260 260 263 266 270 268 271
216 212 213 210 212 213 217 216 210 211 215 212 218 223 220 224 225 229 226 228 234 232 235 238 242 245 246 247 250 251 253 254 258 262 262 262 259 260 263 266 264 266 270
222 222 219 218 215 215 216 217 216 217 217 219 221 230 233 224 225 225 226 228 231 233 235 235 239 242 244 247 248 250 253 256 257 256 258 259 259 261 261 260 262 265 266
225 229 227 221 221 223 220 218 222 222 226 229 229 229 230 229 227 229 230 233 234 234 236 240 245 243 243 246 247 249 251 253 254 256 259 260 262 261 260 261 262 262 264
236 236 234 235 231 227 227 228 227 227 231 234 230 230 230 230 233 235 236 239 239 241 242 245 245 248 250 251 251 251 252 254 255 256 258 258 259 259 259 260 263 265 264
234 237 243 243 238 240 238 237 235 233 234 232 238 241 239 239 238 241 239 237 242 245 248 250 252 254 253 252 252 252 253 254 256 257 258 259 260 261 261 262 263 265 266
243 243 245 246 248 250 248 246 248 244 241 240 245 240 241 242 246 247 246 246 248 252 250 253 253 256 256 255 256 256 256 258 259 259 260 261 261 261 263 265 265 266 268
240 244 250 254 254 252 248 250 251 251 251 250 250 252 252 249 246 246 246 249 247 249 250 252 252 254 254 257 256 255 256 258 259 259 260 261 262 264 265 265 265 265 266
242 243 247 250 256 256 256 256 254 254 252 253 255 253 254 254 254 251 251 250 251 252 253 254 254 255 255 254 256 257 258 257 258 259 260 260 261 262 264 265 265 267 270
261 255 253 251 250 254 256 255 255 253 251 252 253 254 253 254 255 256 254 254 255 258 257 256 256 258 260 260 260 260 261 262 263 263 264 264 265 266 268 271 270 272 274
261 256 253 252 251 254 255 257 259 258 258 255 255 254 254 255 257 257 257 258 260 259 260 262 261 261 261 263 264 265 266 268 266 267 268 269 270 270 270 271 273 275 275
265 262 258 256 257 259 257 256 256 258 260 261 260 259 260 259 258 260 260 260 261 262 263 263 264 263 263 265 266 267 267 267 268 269 269 270 270 272 274 274 274 275 275
Height
10805 10806 10811 10811 10814 10819 10825 10831 10839 10849 10862 10873 10885 10892 10901 10904 10904 10904 10908 10913 10914 10915 10917 10923 10929 10933 10935 10937 10939 10942 10945 10946 10948 10949 10949 10949 10949 10948 10946 10944 10940 10935 10930
10787 10786 10788 10790 10794 10800 10807 10815 10825 10840 10854 10868 10875 10873 10892 10891 10902 10900 10904 10905 10908 10912 10914 10916 10921 10926 10930 10931 10934 10938 10940 10942 10943 10946 10944 10944 10944 10943 10941 10939 10936 10930 10925
10767 10766 10768 10770 10777 10783 10791 10799 10812 10828 10844 10856 10864 10872 10886 10884 10891 10895 10900 10900 10899 10903 10908 10913 10914 10920 10924 10926 10927 10929 10933 10935 10939 10941 10941 10941 10940 10939 10937 10933 10931 10927 10921
10749 10747 10750 10752 10758 10766 10773 10783 10794 10813 10827 10827 10799 10827 10851 10860 10872 10880 10887 10889 10889 10890 10898 10906 10912 10913 10916 10918 10919 10922 10926 10929 10931 10933 10935 10936 10935 10934 10933 10931 10927 10923 10919
10734 10734 10735 10737 10743 10751 10759 10767 10779 10795 10808 10802 10800 10810 10832 10842 10856 10867 10871 10877 10869 10882 10888 10896 10906 10907 10908 10910 10911 10913 10917 10920 10923 10925 10926 10929 10930 10929 10927 10925 10922 10919 10915
10718 10721 10724 10727 10734 10740 10750 10759 10769 10780 10791 10793 10796 10805 10816 10834 10844 10853 10858 10860 10868 10877 10882 10882 10894 10899 10899 10902 10903 10905 10908 10911 10913 10915 10918 10921 10922 10919 10922 10919 10916 10913 10910
10707 10709 10713 10717 10723 10731 10739 10747 10755 10764 10773 10784 10790 10798 10807 10817 10832 10846 10845 10844 10851 10855 10855 10867 10879 10886 10888 10891 10894 10898 10900 10903 10905 10906 10908 10911 10912 10911 10913 10912 10910 10908 10906
10697 10701 10708 10710 10714 10719 10724 10733 10739 10744 10750 10759 10770 10783 10795 10807 10817 10828 10833 10836 10840 10842 10849 10859 10866 10874 10878 10881 10883 10888 10891 10893 10893 10894 10897 10899 10901 10901 10904 10904 10904 10903 10900
10691 10696 10698 10703 10709 10712 10715 10717 10722 10729 10734 10737 10751 10764 10778 10793 10801 10811 10821 10827 10830 10835 10841 10849 10856 10860 10865 10866 10872 10876 10878 10880 10881 10882 10884 10885 10889 10891 10894 10895 10896 10895 10892
10688 10692 10695 10697 10701 10705 10707 10713 10714 10717 10723 10724 10734 10748 10764 10777 10786 10796 10808 10813 10819 10825 10830 10836 10841 10847 10850 10854 10857 10859 10861 10863 10866 10869 10872 10874 10877 10879 10882 10884 10885 10887 10885
10683 10688 10691 10694 10697 10701 10705 10710 10708 10708 10711 10710 10723 10731 10740 10756 10768 10782 10790 10798 10804 10809 10813 10822 10828 10832 10835 10840 10841 10844 10848 10851 10854 10859 10860 10862 10864 10865 10867 10870 10872 10871 10874
10679 10683 10687 10691 10693 10700 10700 10704 10706 10703 10703 10706 10711 10720 10731 10744 10756 10766 10775 10781 10785 10792 10800 10806 10812 10816 10822 10824 10827 10832 10835 10838 10841 10842 10845 10848 10849 10852 10854 10856 10857 10858 10857
10671 10677 10681 10686 10690 10692 10694 10697 10702 10701 10701 10701 10704 10715 10724 10734 10746 10758 10764 10769 10774 10781 10785 10791 10797 10802 10805 10809 10814 10818 10822 10823 10824 10827 10830 10831 10833 10836 10840 10841 10843 10843 10842
10664 10668 10673 10676 10679 10683 10686 10689 10691 10695 10699 10701 10705 10709 10715 10725 10734 10742 10750 10757 10762 10768 10771 10775 10783 10789 10792 10795 10798 10804 10806 10808 10810 10812 10815 10816 10818 10820 10822 10824 10824 10825 10824
10655 10660 10663 10666 10670 10675 10679 10682 10685 10689 10692 10698 10702 10706 10713 10720 10726 10733 10740 10746 10751 10756 10760 10764 10769 10774 10778 10780 10781 10784 10789 10792 10794 10796 10798 10800 10801 10802 10804 10805 10806 10806 10805
10645 10649 10653 10656 10660 10665 10670 10675 10679 10683 10686 10689 10693 10698 10705 10712 10718 10724 10728 10734 10739 10742 10747 10751 10754 10758 10761 10763 10765 10767 10770 10771 10774 10777 10779 10781 10782 10782 10783 10785 10787 10786 10784
10633 10636 10640 10647 10651 10654 10661 10665 10670 10674 10679 10683 10686 10691 10696 10701 10704 10710 10715 10720 10725 10729 10732 10735 10738 10740 10741 10744 10746 10748 10749 10750 10753 10755 10757 10759 10760 10761 10761 10764 10764 10764 10762
10624 10629 10634 10639 10643 10647 10651 10656 10661 10665 10669 10673 10677 10681 10685 10689 10693 10698 10703 10707 10710 10714 10716 10718 10720 10720 10722 10724 10726 10727 10729 10730 10731 10732 10733 10735 10736 10737 10738 10738 10740 10740 10740
10617 10620 10624 10629 10634 10638 10640 10644 10648 10652 10657 10660 10664 10668 10672 10676 10679 10682 10686 10688 10691 10694 10696 10698 10699 10699 10702 10702 10704 10705 10706 10706 10708 10708 10708 10710 10710 10710 10710 10711 10713 10715 10715
10608 10611 10612 10618 10623 10626 10630 10633 10636 10640 10643 10646 10650 10653 10656 10659 10662 10664 10666 10668 10671 10673 10675 10677 10676 10677 10678 10680 10681 10681 10681 10683 10682 10683 10684 10685 10684 10683 10685 10683 10684 10686 10687
10598 10602 10604 10606 10609 10611 10615 10619 10621 10624 10627 10630 10632 10634 10639 10641 10643 10643 10646 10650 10653 10654 10652 10651 10653 10653 10654 10656 10657 10659 10659 10661 10660 10659 10657 10658 10656 10657 10654 10659 10655 10657 10655
10587 10590 10592 10593 10594 10596 10598 10600 10603 10606 10609 10611 10614 10615 10617 10618 10620 10624 10627 10628 10627 10624 10623 10623 10622 10625 10630 10630 10632 10632 10632 10630 10630 10630 10627 10625 10626 10626 10626 10624 10625 10625 10625
10574 10577 10578 10580 10582 10583 10584 10586 10587 10588 10590 10594 10596 10592 10594 10598 10598 10602 10603 10601 10600 10597 10599 10598 10597 10600 10605 10605 10601 10601 10598 10597 10595 10596 10595 10594 10593 10594 10594 10595 10594 10594 10594
10558 10561 10562 10564 10565 10567 10569 10570 10572 10573 10574 10577 10575 10574 10576 10578 10577 10577 10577 10575 10578 10571 10574 10569 10574 10576 10576 10574 10574 10572 10569 10568 10564 10566 10566 10563 10563 10564 10564 10563 10560 10561 10559
10541 10540 10543 10545 10546 10547 10550 10550 10551 10551 10553 10554 10551 10551 10552 10553 10554 10550 10551 10553 10549 10546 10545 10542 10541 10542 10548 10546 10542 10541 10539 10535 10535 10534 10529 10530 10532 10528 10526 10527 10525 10522 10522
10528 10527 10528 10529 10529 10529 10530 10530 10530 10530 10532 10528 10530 10530 10527 10525 10528 10525 10524 10525 10519 10516 10515 10511 10510 10504 10507 10518 10510 10502 10497 10493 10496 10499 10495 10487 10492 10487 10486 10489 10488 10484 10481